Shungnak AP, Shungnak, AK, AK

3:24 PM AKST on November 18, 2019 (GMT -0900)
Shungnak AP, Shungnak, AK

Weather History for PAGH - September, 2019

Change the Weather History Date:

Monday, September 23, 2019

  Actual Average (PAFM) Record (PAFM)
Temperature  
Mean Temperature 39 °F -  
Max Temperature 50 °F 40 °F 56 °F (1984)
Min Temperature 28 °F 29 °F 9 °F (1983)
Degree Days  
Heating Degree Days 26    
Moisture  
Dew Point 29 °F    
Average Humidity 71    
Maximum Humidity 93    
Minimum Humidity 48    
Precipitation  
Precipitation 0.00 in - - ()
Sea Level Pressure  
Sea Level Pressure 29.60 in    
Wind  
Wind Speed 9 mph (ESE)    
Max Wind Speed 15 mph    
Max Gust Speed -    
Visibility 10 miles    
Events Rain    
Averages and records for this station are not official NWS values.
T = Trace of Precipitation, MM = Missing Value Source: NWS Daily Summary

Daily Weather History Graph

Daily Weather History Graph

Search for Another Location

Airport or City:

Astronomy

Sep. 23, 2019 Rise Set
Actual Time 8:13 AM AKDT 8:26 PM AKDT
Civil Twilight 7:20 AM AKDT 9:19 PM AKDT
Nautical Twilight 6:14 AM AKDT 10:24 PM AKDT
Astronomical Twilight 4:54 AM AKDT 11:42 PM AKDT
Moon 11:52 PM AKDT (9/23) 8:54 PM AKDT (9/23)
Length of Visible Light 13h 58m
Length of Day
12h 12m
Waning Crescent, 31% of the Moon is Illuminated
Sep 23
Waning Crescent
Sep 28
New
Oct 5
First Quarter
Oct 13
Full
Oct 21
Last Quarter

Hourly Weather History & Observations

Time (AKDT) Temp. Windchill Dew Point Humidity Pressure Visibility Wind Dir Wind Speed Gust Speed Precip Events Conditions
12:56 AM 35.1 °F 27.9 °F 27.0 °F 72% 29.54 in 10.0 mi ESE 9.2 mph - N/A   Clear
1:56 AM 30.9 °F 23.5 °F 27.0 °F 85% 29.55 in 10.0 mi ESE 8.1 mph - N/A   Clear
2:56 AM 30.9 °F 22.2 °F 27.0 °F 85% 29.55 in 10.0 mi SE 10.4 mph - N/A   Clear
3:56 AM 30.9 °F 23.5 °F 26.1 °F 82% 29.55 in 10.0 mi ESE 8.1 mph - N/A   Clear
4:56 AM 30.0 °F 21.7 °F 26.1 °F 85% 29.56 in 10.0 mi ESE 9.2 mph - N/A   Clear
5:56 AM 30.0 °F 21.1 °F 25.0 °F 82% 29.56 in 10.0 mi ESE 10.4 mph - N/A   Clear
6:56 AM 28.9 °F 18.6 °F 25.0 °F 85% 29.56 in 10.0 mi ESE 12.7 mph - N/A   Clear
7:56 AM 28.9 °F 19.8 °F 25.0 °F 85% 29.57 in 10.0 mi ESE 10.4 mph - N/A   Clear
8:56 AM 28.9 °F 19.8 °F 25.0 °F 85% 29.58 in 10.0 mi SE 10.4 mph - N/A   Overcast
9:56 AM 30.9 °F 22.2 °F 26.1 °F 82% 29.59 in 10.0 mi SE 10.4 mph - N/A   Clear
10:56 AM 35.1 °F 26.4 °F 26.1 °F 70% 29.60 in 10.0 mi ESE 12.7 mph - N/A   Clear
11:56 AM 39.9 °F 32.1 °F 28.0 °F 63% 29.60 in 10.0 mi ESE 13.8 mph - N/A   Clear
12:56 PM 43.0 °F 35.7 °F 28.0 °F 56% 29.60 in 10.0 mi East 15.0 mph - N/A   Clear
1:56 PM 45.0 °F 38.9 °F 28.9 °F 53% 29.60 in 10.0 mi ESE 12.7 mph - N/A   Clear
2:56 PM 46.9 °F - 30.0 °F 52% 29.61 in 10.0 mi ESE 6.9 mph - N/A   Clear
3:56 PM 48.0 °F - 30.0 °F 50% 29.61 in 10.0 mi ESE 5.8 mph - N/A   Mostly Cloudy
4:56 PM 48.9 °F - 30.0 °F 48% 29.61 in 10.0 mi ESE 3.5 mph - N/A   Partly Cloudy
5:56 PM 50.0 °F - 30.9 °F 48% 29.62 in 10.0 mi NW 6.9 mph - N/A   Scattered Clouds
6:56 PM 46.9 °F - 30.9 °F 54% 29.63 in 10.0 mi NNW 3.5 mph - N/A   Mostly Cloudy
7:56 PM 46.0 °F - 30.9 °F 56% 29.64 in 10.0 mi Calm Calm - N/A   Mostly Cloudy
8:56 PM 44.1 °F 40.8 °F 30.9 °F 60% 29.66 in 10.0 mi Variable 5.8 mph - N/A   Mostly Cloudy
9:56 PM 39.9 °F 36.7 °F 34.0 °F 79% 29.68 in 10.0 mi WNW 4.6 mph - N/A   Overcast
10:56 PM 39.0 °F 35.7 °F 37.0 °F 93% 29.69 in 10.0 mi NNW 4.6 mph - N/A Rain Light Rain
11:56 PM 39.0 °F 35.7 °F 37.0 °F 93% 29.70 in 10.0 mi South 4.6 mph - N/A Rain Light Rain